CFG8MN LKPR-EDDF

Flight info

Callsign CFG8MN
Flight time N/A
Altitude 30000
Route BALTU DCT DONAD DCT RAPET T170 VAGAB/N0407F240 T170 GAPLA T178 KERAX KERAX5A
Aircraft A320/M-SDE3FGHIRWY/LB1

Departure

Time 2026-05-06 17:58
Airport Václav Havel Airport Prague (LKPR)

Arrival

Time N/A
Airport Frankfurt Main Airport (EDDF)
Time Latitude Longitude Altitude Speed Heading
2026-05-06 17:26 50.10483 14.26478 1170 ft 0 kts 34°
2026-05-06 17:47 50.10470 14.26464 1171 ft 4 kts 37°
2026-05-06 17:47 50.10454 14.26439 1169 ft 4 kts 90°
2026-05-06 17:47 50.10454 14.26429 1169 ft 3 kts 124°
2026-05-06 17:47 50.10438 14.26464 1174 ft 4 kts 124°
2026-05-06 17:48 50.10433 14.26476 1171 ft 0 kts 124°
2026-05-06 17:50 50.10406 14.26536 1171 ft 10 kts 124°
2026-05-06 17:50 50.10362 14.26620 1173 ft 9 kts 157°
2026-05-06 17:50 50.10313 14.26585 1171 ft 7 kts 214°
2026-05-06 17:50 50.10293 14.26563 1172 ft 0 kts 214°
2026-05-06 17:52 50.10273 14.26542 1175 ft 9 kts 214°
2026-05-06 17:52 50.10217 14.26557 1177 ft 11 kts 130°
2026-05-06 17:52 50.10164 14.26672 1178 ft 17 kts 127°
2026-05-06 17:52 50.10085 14.26834 1187 ft 17 kts 127°
2026-05-06 17:53 50.10021 14.26966 1195 ft 13 kts 127°
2026-05-06 17:53 50.09967 14.27078 1198 ft 15 kts 127°
2026-05-06 17:53 50.09902 14.27214 1201 ft 16 kts 127°
2026-05-06 17:53 50.09827 14.27352 1203 ft 17 kts 135°
2026-05-06 17:54 50.09745 14.27480 1205 ft 17 kts 135°
2026-05-06 17:54 50.09666 14.27601 1207 ft 13 kts 135°
2026-05-06 17:54 50.09605 14.27694 1211 ft 11 kts 135°
2026-05-06 17:54 50.09539 14.27795 1212 ft 18 kts 135°
2026-05-06 17:55 50.09431 14.27961 1215 ft 23 kts 135°
2026-05-06 17:55 50.09320 14.28132 1215 ft 17 kts 135°
2026-05-06 17:55 50.09240 14.28253 1212 ft 14 kts 137°
2026-05-06 17:55 50.09160 14.28275 1211 ft 7 kts 201°
2026-05-06 17:56 50.09141 14.28256 1211 ft 0 kts 216°
2026-05-06 17:56 50.09135 14.28249 1211 ft 7 kts 216°
2026-05-06 17:56 50.09073 14.28179 1209 ft 9 kts 216°
2026-05-06 17:57 50.09069 14.28114 1208 ft 0 kts 309°
2026-05-06 17:57 50.09083 14.28086 1208 ft 19 kts 309°
2026-05-06 17:58 50.09327 14.27583 1212 ft 93 kts 307°
2026-05-06 17:58 50.09843 14.26516 1210 ft 151 kts 307°
2026-05-06 17:58 50.10553 14.25063 1466 ft 171 kts 308°
2026-05-06 17:58 50.11266 14.23595 2227 ft 168 kts 307°
2026-05-06 17:59 50.11968 14.22146 2935 ft 166 kts 306°
2026-05-06 17:59 50.12664 14.20704 3527 ft 167 kts 306°
2026-05-06 17:59 50.13353 14.19268 4088 ft 167 kts 305°
2026-05-06 17:59 50.14059 14.17793 4549 ft 176 kts 304°
2026-05-06 18:00 50.14827 14.16188 4811 ft 196 kts 304°
2026-05-06 18:00 50.15686 14.14412 5097 ft 216 kts 305°